User: anonymous   Login
Location: Bowman Observatory
(41.0326°N, 73.6210°W)
Time: 17:16:44
(UTC-04:00)
Language:

Cosmos 2297 - Orbit

View from above orbital plane
View from above orbital plane
View from above satellite
View from above satellite

Ground track
Ground track

The orbit data is extracted from the following two-line orbital elements,

1 23404U 94077A   15090.70493163 -.00000098  00000-0 -26571-4 0  9992
2 23404 071.0131 185.3559 0017591 292.2265 219.5023 14.13429244 49835
Epoch (UTC): 31 March 2015 16:55:06
Eccentricity: 0.0017591
inclination: 71.0131°
perigee height: 835 km
apogee height: 860 km
right ascension of ascending node: 185.3559°
argument of perigee: 292.2265°
revolutions per day: 14.13429244
mean anomaly at epoch: 219.5023°
orbit number at epoch: 4983

The dashed part of the orbit path shows where the satellite is in the earth's shadow,  

DLR